Other Public Products
Issued by NWS Grand Forks, ND

Home | Current Version | Previous Version | Graphics & Text | Print | Product List | Glossary On
Versions: 1 2 3 4 5 6 7 8 9 10 11 12 13 14 15 16 17 18 19 20 21 22 23 24 25 26 27 28 29 30 31 32 33 34 35 36 37 38 39 40 41 42 43 44 45 46 47 48 49 50
000
FPUS83 KFGF 251531
OPUFGF
PRAIRIE TO PINES WEATHER ROUNDUP
NATIONAL WEATHER SERVICE EASTERN NORTH DAKOTA/GRAND FORKS ND
1000 AM CDT SAT OCT 25 2014

 **SATELLITE DATA USED TO AUGMENT SKY COVER AT AUTOMATED STATIONS**
 *****  WEATHER ACROSS EASTERN NORTH DAKOTA  *****

CITY           SKY/WX    TMP DP  RH WIND       PRES   REMARKS
GRAND FORKS    MOSUNNY   49  32  52 NW15      30.07R
GRAND FORKS AF SUNNY     49  33  54 NW10      30.07R
GRAND CITY NWS   N/A     50 N/A N/A NW7         N/A
BUXTON         NOT AVBL
DEVILS LAKE    SUNNY     45  32  61 W16       30.09R
FARGO          MOSUNNY   49  33  54 W15       30.10R
WAHPETON ARPT  MOSUNNY   50  32  50 NW13      30.12R
$$

 *****  WEATHER ACROSS CENTRAL AND WESTERN NORTH DAKOTA  *****

CITY           SKY/WX    TMP DP  RH WIND       PRES   REMARKS
JAMESTOWN      CLOUDY    48  36  63 W9        30.14R
BISMARCK       MOSUNNY   47  34  60 S3        30.18R
MINOT          MOSUNNY   44  30  57 SW6       30.13R
MINOT AFB      SUNNY     42  32  67 W8        30.13R
GARRISON         N/A     44  32  62 CALM      30.14R
WILLISTON      PTSUNNY   43  33  68 CALM      30.13S
DICKINSON      SUNNY     46  34  62 S3        30.13S
HETTINGER      SUNNY     41  33  73 CALM      30.16S
$$

 *****  OTHER OBSERVATIONS NORTHEAST NORTH DAKOTA  *****

CITY           SKY/WX    TMP DP  RH WIND       PRES   REMARKS
WALHALLA         N/A     48  28  46 W16G24    30.05R
LANGDON        FAIR      41  30  65 W12       30.07R
CAVALIER       FAIR      48  30  49 NW17G24   30.04R
GRAFTON        FAIR      46  32  57 W13       30.06R
CANDO          FAIR      43  34  70 W12       30.11R
FORT TOTTEN      N/A     44  35  70 W7        29.95
ROLLA          FAIR      46  25  42 W10       30.10R
RUGBY          FAIR      39  34  81 W6        30.13R
 ***** THE ABOVE OBSERVATIONS ARE NON NWS ARE NOT QUALITY
        CONTROLLED AND MAY MIS-REPORT RAIN FOR SNOW...
$$

 *****  OTHER OBSERVATIONS SOUTHEAST NORTH DAKOTA *****

CITY           SKY/WX    TMP DP  RH WIND       PRES   REMARKS
COOPERSTOWN    NOT AVBL
VALLEY CITY    FAIR      48  36  61 W13G18    30.13S
OAKES            N/A     52  36  54 NW12      30.14S
GWINNER        MOSUNNY   52  32  46 NW9       30.15R
BUFFALO          N/A     48  33  55 W10         N/A
WYNDMERE         N/A     48  36  61 NW8         N/A
 ***** THE ABOVE OBSERVATIONS ARE NON NWS ARE NOT QUALITY
       CONTROLLED AND MAY MIS-REPORT RAIN FOR SNOW...
$$

  *****  WEATHER ACROSS NORTHERN MINNESOTA  *****

CITY           SKY/WX    TMP DP  RH WIND       PRES   REMARKS
FLAG ISLAND    SUNNY     45  32  61 W20       29.91R
WARROAD        SUNNY     45  36  70 W10       29.96R
ROSEAU         SUNNY     46  34  61 W14       29.98R
HALLOCK        SUNNY     46  32  57 W13       30.02R
THF RVR FALLS  SUNNY     45  30  57 W14       30.04R
HALSTAD          N/A     49  34  56 NW13        N/A
FOSSTON        SUNNY     46  30  53 W16       30.05R
BAUDETTE       SUNNY     45  31  58 NW12G18   29.93R
WASKISH        SUNNY     46  36  66 W15G22    29.97R
CROOKSTON      SUNNY     48  32  53 NW22      30.07R
$$
  *****  WEATHER ACROSS CENTRAL AND WEST MINNESOTA  *****

CITY           SKY/WX    TMP DP  RH WIND       PRES   REMARKS
BEMIDJI        SUNNY     47  31  55 W18G24    30.00R
PARK RAPIDS    SUNNY     48  32  53 NW13      30.02R
WADENA         SUNNY     48  34  57 W8G17     30.05S
DETROIT LAKES  SUNNY     48  32  53 NW18G24   30.07R
MOORHEAD       MOSUNNY   52  30  43 NW13      30.11R
FERGUS FALLS   SUNNY     46  30  53 NW13      30.12R
ELBOW LAKE     FAIR      47  35  62 NW9       30.11R
MORRIS MN      MOSUNNY   52  37  58 NW10      30.10S
STAPLES        SUNNY     48  34  57 W15       30.05R
WHEATON        PTSUNNY   52  36  54 W10       30.14R
$$
  *****  WEATHER ELSEWHERE ACROSS MINNESOTA  *****

CITY           SKY/WX    TMP DP  RH WIND       PRES   REMARKS
DULUTH         SUNNY     50  31  48 NW18G28   29.91R
INTRNTL FALLS  SUNNY     46  32  58 W14G23    29.88S
ELY            SUNNY     46  30  53 W15G30    29.85S
CLOQUET        SUNNY     52  30  43 W15G28    29.94R
BRAINERD       SUNNY     48  33  56 W13       30.02S
HIBBING        SUNNY     50  31  48 NW13G23   29.91S
ALEXANDRIA     MOSUNNY   48  35  60 W12       30.09R
SAINT CLOUD    SUNNY     54  34  46 NW12      30.05R
MINNEAPOLIS    MOSUNNY   55  33  43 NW14      30.05R
$$

  *****  WEATHER ACROSS SOUTH DAKOTA  *****

CITY           SKY/WX    TMP DP  RH WIND       PRES   REMARKS
SIOUX FALLS    MOSUNNY   56  44  64 CALM      30.14R
BROOKINGS      NOT AVBL
WATERTOWN      SUNNY     51  36  56 NW8       30.14R
HURON          SUNNY     53  37  54 N7        30.16R
SISSETON         N/A     55  33  43 N13       30.11S
ABERDEEN       MOSUNNY   53  36  52 NW5       30.16R
MITCHELL       SUNNY     51  40  65 NW3       30.17R
PIERRE         SUNNY     49  37  63 CALM      30.16R
MOBRIDGE       SUNNY     51  38  60 NW3       30.15R
RAPID CITY     SUNNY     48  34  58 S5        30.17S
$$

  *****  SOME WEATHER IN NEARBY STATES *****

CITY           SKY/WX    TMP DP  RH WIND       PRES   REMARKS
GLASGOW MT     MOSUNNY   45  32  60 E8        30.06F
GREAT FALLS MT CLEAR     38  37  97 CALM      29.94F
CHEYENNE WY    SUNNY     51  25  36 SW7       30.27R
SCOTTSBLUFF NE SUNNY     50  32  50 N3        30.19S
OMAHA NE       MOSUNNY   54  48  80 N6        30.13R
DES MOINES IA  MOSUNNY   61  45  55 N7        30.10R
DAVENPORT IA   SUNNY     60  50  69 NW10      30.03R
CHICAGO IL     MOSUNNY   63  51  65 NW12      29.93R
EAU CLAIRE WI  SUNNY     54  36  50 NW15      29.98R
LA CROSSE WI   SUNNY     59  42  53 NW12      30.00R
$$

  *****  SOME NATIONAL WEATHER *****

CITY           SKY/WX    TMP DP  RH WIND       PRES   REMARKS
LA GUARDIA NY  MOSUNNY   58  39  49 W9        29.84F
RALEIGH NC     SUNNY     59  44  57 CALM      30.03S
ATLANTA GA     SUNNY     63  43  48 NW6       30.08S
NEW ORLEANS LA SUNNY     70  53  54 NE9       30.16R
OKLAHOMA CITY  SUNNY     68  61  78 S7        30.10R
ALBUQUERQUE NM SUNNY     54  29  38 N6        30.33R
SALT LAKE CITY SUNNY     59  30  33 SE16      30.08R
LOS ANGELES CA MOCLDY    65  60  85 CALM      30.02R
BOISE ID       MOCLDY    45  41  86 N6        29.83S
SEATTLE WA     CLOUDY    50  48  93 SW8       29.57R
$$

*** WEATHER ACROSS MANITOBA...SASKATCHEWAN AND ONTARIO ***
                ***ONTARIO***

CITY           SKY/WX    TMP DP  RH WIND       PRES   REMARKS
GERALDTON      PTSUNNY   45  36  70 W25G35    29.49R
THUNDER BAY    MOSUNNY   54  34  47 W22G37    29.67R
SIOUX LOOKOUT  PTSUNNY   45  34  65 NW16G29   29.72R
TORONTO        PTSUNNY   59  48  67 SW17G24   29.68F
BIG TROUT LK   LGT RAIN  39  37  93 NW20G30   29.42R
PICKLE LAKE    PTSUNNY   41  30  65 W17G38    29.54R
DRYDEN         MOSUNNY   45  32  61 W24G31    29.77R
KENORA         MOSUNNY   45  32  61 W13G22    29.86R
$$
                *** MANITOBA***

CITY           SKY/WX    TMP DP  RH WIND       PRES   REMARKS
BRANDON        MOSUNNY   41  30  65 W16       30.05R
DAUPHIN        SUNNY     43  30  61 W20       29.97R
ISLAND LAKE    PTSUNNY   37  32  81 W28G35    29.67
PILOT MOUND      N/A     43  30  61 W10         N/A
THE PAS        CLOUDY    37  28  70 W17G26    29.87R
THOMPSON       PTSUNNY   36  30  80 W12G20    29.68R
WINNIPEG       MOSUNNY   45  32  61 W16G24    29.98R
LYNN LAKE      LGT SNOW  32  28  86 W13G22    29.71R WCI  22
CHURCHILL      LGT RAIN  37  37 100 N14       29.42R FOG
GILLAM         CLOUDY    37  36  93 W20G31    29.53R
$$
                ***SASKATCHEWAN***

CITY           SKY/WX    TMP DP  RH WIND       PRES   REMARKS
ESTEVAN        MOSUNNY   37  32  81 SW5       30.12R
KINDERSLEY     MOCLDY    28  25  86 N3        30.03
LLOYDMINSTER   MOCLDY    30  25  80 W8        30.02R WCI  23
PRINCE ALBERT  PTCLDY    36  28  75 W9        29.99R
REGINA         MOSUNNY   34  30  86 S5        30.08R
YORKTON        SUNNY     39  30  70 W15       30.01R



USA.gov is the U.S. government's official web portal to all federal, state and local government web resources and services.